Regional Weather Roundup
Issued by NWS

Home | Current Version | Previous Version | Text Only | Print | Product List | Glossary Off
Versions: 1 2 3 4 5 6 7 8 9 10 11 12 13 14 15 16 17 18 19 20 21 22 23 24 25 26 27 28 29 30 31 32 33 34 35 36 37 38 39 40 41 42 43 44 45 46 47 48 49 50

000
ASUS44 KOUN 291610
RWROK

WEATHER ROUNDUP FOR OKLAHOMA
NATIONAL WEATHER SERVICE NORMAN OK
1000 AM CST THU JAN 29 2015

NOTE: "FAIR" INDICATES FEW OR NO CLOUDS BELOW 12,000 FEET WITH NO
      SIGNIFICANT WEATHER AND/OR OBSTRUCTIONS TO VISIBILITY.

OKZ001>007-009>012-014-015-017-291700-
NORTHWEST OKLAHOMA AND THE PANHANDLE

CITY           SKY/WX    TMP DP  RH WIND       PRES   REMARKS
GAGE           MOSUNNY   44  31  60 N20       30.47R
ENID/WOODRING  PTSUNNY   46  32  57 NW23G31   30.44R
$$

OKZ016-021>023-033>039-044-045-291700-
SOUTHWEST OKLAHOMA

CITY           SKY/WX    TMP DP  RH WIND       PRES   REMARKS
LAWTON/REGL    PTSUNNY   53  35  50 N25G36    30.36R
LAWTON/FT SILL PTSUNNY   52  36  53 N23G33    30.33R
FREDERICK      PTSUNNY   53  36  52 N23G32    30.36R
CLINTON        MOSUNNY   46  31  55 N31G44    30.42R
HOBART         PTSUNNY   50  35  56 N23G36    30.40R
ALTUS AFB      CLOUDY    52  35  53 N21G33    30.40R
$$

OKZ018>020-024>031-291700-
CENTRAL OKLAHOMA

CITY           SKY/WX    TMP DP  RH WIND       PRES   REMARKS
OKLAHOMA CITY  PTSUNNY   48  32  53 N30G40    30.37R
OKC/WILEY POST SUNNY     46  32  58 N24G32    30.39R
OKC/TINKER AFB SUNNY     48  33  57 N26G32    30.37R
STILLWATER     PTSUNNY   48  32  53 N16G24    30.41R
GUTHRIE        MOSUNNY   48  32  53 N14G24    30.41R
$$

OKZ008-013-054>072-291700-
NORTHEAST OKLAHOMA

CITY           SKY/WX    TMP DP  RH WIND       PRES   REMARKS
TULSA          CLOUDY    47  34  60 NW18G30   30.35R
TULSA/JONES    CLOUDY    47  33  58 N14G24    30.36R
PONCA CITY     CLOUDY    45  29  53 N29       30.41R
BARTLESVILLE   CLOUDY    44  30  57 N9G20     30.40R
MUSKOGEE       PTSUNNY   50  35  56 N18       30.32R
$$

OKZ032-040>043-046>053-073>077-291700-
SOUTH CENTRAL/SOUTHEAST OKLAHOMA

CITY           SKY/WX    TMP DP  RH WIND       PRES   REMARKS
ARDMORE/DWNTWN MOSUNNY   55  32  41 N12G23    30.31R
MCALESTER      MOSUNNY   58  36  43 N20G26    30.29R
$$



USA.gov is the U.S. government's official web portal to all federal, state and local government web resources and services.